Location: Newark
(40.9833°N, 0.0333°W)
Time: 20:19:01
(UTC+00:00)

Vanguard 2 Rocket - Pass Details

Date: 29 October 2020
Orbit: 554 x 3326 km, 32.9° (Epoch: 25 November)

Event Time Altitude Azimuth Distance (km) Brightness Sun altitude
Rises 01:04:25 0° 253° (WSW) 4,268 - -57.4°
Reaches altitude 10° 01:11:22 10° 214° (SW) 4,085 - -56.6°
Maximum altitude 01:12:42 10° 207° (SSW) 4,207 - -56.4°
Drops below altitude 10° 01:14:07 10° 200° (SSW) 4,379 - -56.2°
Sets 01:24:21 0° 167° (SSE) 6,332 - -54.9°
